When you browse on this site, cookies collect data to enhance your experience and personalize the content and advertising you see.
Visit our Privacy Policy to learn more. By continuing to use the site, you agree to this use of cookies and data.
  • In Czech Republic
  • List of Countries
  • For 7 days
  • Water Temperature
  • Weather Map
  • Weather Widgets
  • user-avatar
    Login

    Hourly Weather Ondjiwa

    Today, 10 December, Tuesday

    Time Temperature Precipitation Wind Pressure Humidity
    00:00 +21°C° 0 mm 3 mps 665 mmHg 34%
    01:00 +20°C° 0 mm 3 mps 665 mmHg 38%
    02:00 +20°C° 0 mm 2 mps 665 mmHg 42%
    03:00 +19°C° 0 mm 2 mps 665 mmHg 46%
    04:00 +20°C° 0 mm 1 mps 665 mmHg 50%
    05:00 +21°C° 0 mm 1 mps 665 mmHg 49%
    06:00 +22°C° 0 mm 1 mps 666 mmHg 47%
    07:00 +23°C° 0 mm 1 mps 667 mmHg 46%
    08:00 +25°C° 0 mm 1 mps 667 mmHg 38%
    09:00 +27°C° 0 mm 1 mps 667 mmHg 31%
    10:00 +30°C° 0 mm 1 mps 668 mmHg 24%
    11:00 +31°C° 0 mm 2 mps 667 mmHg 22%
    12:00 +32°C° 0 mm 2 mps 667 mmHg 19%
    13:00 +34°C° 0 mm 3 mps 666 mmHg 17%
    14:00 +34°C° 0 mm 3 mps 666 mmHg 16%
    15:00 +34°C° 0 mm 3 mps 665 mmHg 14%
    16:00 +34°C° 0 mm 3 mps 665 mmHg 13%
    17:00 +32°C° 0 mm 2 mps 665 mmHg 15%
    18:00 +30°C° 0 mm 2 mps 665 mmHg 17%
    19:00 +28°C° 0 mm 1 mps 665 mmHg 18%
    20:00 +27°C° 0 mm 2 mps 665 mmHg 20%
    21:00 +26°C° 0 mm 2 mps 665 mmHg 22%
    22:00 +25°C° 0 mm 3 mps 666 mmHg 24%
    23:00 +24°C° 0 mm 3 mps 666 mmHg 30%

    Tomorrow, 11 December, Wednesday

    Time Temperature Precipitation Wind Pressure Humidity
    00:00 +22°C° 0 mm 3 mps 665 mmHg 36%
    01:00 +21°C° 0 mm 3 mps 665 mmHg 43%
    02:00 +20°C° 0 mm 3 mps 665 mmHg 46%
    03:00 +20°C° 0 mm 3 mps 665 mmHg 50%
    04:00 +19°C° 0 mm 2 mps 665 mmHg 54%
    05:00 +20°C° 0 mm 3 mps 666 mmHg 51%
    06:00 +21°C° 0 mm 3 mps 666 mmHg 48%
    07:00 +22°C° 0 mm 3 mps 667 mmHg 45%
    08:00 +25°C° 0 mm 3 mps 667 mmHg 38%
    09:00 +27°C° 0 mm 3 mps 667 mmHg 31%
    10:00 +29°C° 0 mm 3 mps 668 mmHg 24%
    11:00 +31°C° 0 mm 3 mps 667 mmHg 22%
    12:00 +32°C° 0 mm 2 mps 667 mmHg 19%
    13:00 +35°C° 0 mm 2 mps 667 mmHg 17%
    14:00 +35°C° 0 mm 2 mps 666 mmHg 17%
    15:00 +35°C° 0 mm 2 mps 666 mmHg 16%
    16:00 +35°C° 0 mm 2 mps 665 mmHg 16%
    17:00 +32°C° 0 mm 2 mps 665 mmHg 18%
    18:00 +30°C° 0 mm 3 mps 665 mmHg 20%
    19:00 +28°C° 0 mm 3 mps 665 mmHg 22%
    20:00 +28°C° 0 mm 2 mps 665 mmHg 22%
    21:00 +27°C° 0 mm 2 mps 666 mmHg 22%
    22:00 +26°C° 0 mm 2 mps 666 mmHg 22%
    23:00 +26°C° 0 mm 3 mps 666 mmHg 26%

    Day after tomorrow, 12 December, Thursday

    Time Temperature Precipitation Wind Pressure Humidity
    00:00 +25°C° 0 mm 3 mps 666 mmHg 30%
    01:00 +23°C° 0 mm 4 mps 666 mmHg 34%
    02:00 +22°C° 0 mm 4 mps 666 mmHg 37%
    03:00 +21°C° 0 mm 3 mps 665 mmHg 41%
    04:00 +20°C° 0 mm 2 mps 665 mmHg 44%
    05:00 +21°C° 0 mm 3 mps 666 mmHg 41%
    06:00 +22°C° 0 mm 3 mps 667 mmHg 38%
    07:00 +24°C° 0 mm 3 mps 667 mmHg 35%
    08:00 +26°C° 0 mm 3 mps 667 mmHg 29%
    09:00 +28°C° 0 mm 3 mps 668 mmHg 24%
    10:00 +31°C° 0 mm 2 mps 668 mmHg 18%
    11:00 +32°C° 0 mm 2 mps 668 mmHg 17%
    12:00 +35°C° 0 mm 3 mps 667 mmHg 15%
    13:00 +36°C° 0 mm 3 mps 667 mmHg 13%
    14:00 +36°C° 0 mm 3 mps 666 mmHg 13%
    15:00 +36°C° 0 mm 3 mps 666 mmHg 13%
    16:00 +36°C° 0 mm 3 mps 665 mmHg 13%
    17:00 +34°C° 0 mm 3 mps 665 mmHg 15%
    18:00 +32°C° 0 mm 2 mps 665 mmHg 17%
    19:00 +30°C° 0 mm 2 mps 665 mmHg 19%
    20:00 +29°C° 0 mm 2 mps 665 mmHg 19%
    21:00 +28°C° 0 mm 1 mps 666 mmHg 19%
    22:00 +28°C° 0 mm 1 mps 666 mmHg 20%
    23:00 +27°C° 0 mm 2 mps 666 mmHg 22%

    13 December, Friday

    Time Temperature Precipitation Wind Pressure Humidity
    00:00 +27°C° 0 mm 2 mps 666 mmHg 25%
    01:00 +27°C° 0 mm 3 mps 666 mmHg 27%
    02:00 +25°C° 0 mm 3 mps 666 mmHg 31%
    03:00 +24°C° 0 mm 2 mps 666 mmHg 34%
    04:00 +23°C° 0 mm 2 mps 666 mmHg 38%
    05:00 +24°C° 0 mm 2 mps 666 mmHg 35%
    06:00 +24°C° 0 mm 2 mps 667 mmHg 32%
    07:00 +25°C° 0 mm 3 mps 667 mmHg 29%
    08:00 +28°C° 0 mm 3 mps 667 mmHg 24%
    09:00 +30°C° 0 mm 3 mps 668 mmHg 19%
    10:00 +34°C° 0 mm 3 mps 668 mmHg 14%
    11:00 +35°C° 0 mm 3 mps 668 mmHg 13%
    12:00 +37°C° 0 mm 3 mps 667 mmHg 13%
    13:00 +38°C° 0 mm 3 mps 667 mmHg 12%
    14:00 +38°C° 0 mm 3 mps 666 mmHg 12%
    15:00 +38°C° 0 mm 3 mps 666 mmHg 13%
    16:00 +38°C° 0 mm 3 mps 665 mmHg 13%
    17:00 +36°C° 0 mm 2 mps 665 mmHg 15%
    18:00 +34°C° 0 mm 2 mps 665 mmHg 17%
    19:00 +31°C° 0 mm 2 mps 665 mmHg 19%
    20:00 +30°C° 0 mm 1 mps 665 mmHg 20%
    21:00 +30°C° 0 mm 1 mps 666 mmHg 21%
    22:00 +29°C° 0 mm 1 mps 666 mmHg 22%
    23:00 +29°C° 0 mm 1 mps 666 mmHg 23%

    14 December, Saturday

    Time Temperature Precipitation Wind Pressure Humidity
    00:00 +28°C° 0 mm 2 mps 666 mmHg 24%
    01:00 +28°C° 0 mm 2 mps 666 mmHg 24%
    02:00 +27°C° 0 mm 2 mps 666 mmHg 27%
    03:00 +26°C° 0 mm 2 mps 666 mmHg 29%
    04:00 +25°C° 0 mm 2 mps 665 mmHg 32%
    05:00 +26°C° 0 mm 2 mps 666 mmHg 31%
    06:00 +27°C° 0 mm 2 mps 666 mmHg 30%
    07:00 +27°C° 0 mm 2 mps 667 mmHg 28%
    08:00 +30°C° 0 mm 2 mps 667 mmHg 24%
    09:00 +33°C° 0 mm 3 mps 668 mmHg 20%
    10:00 +35°C° 0 mm 3 mps 668 mmHg 16%
    11:00 +36°C° 0 mm 3 mps 668 mmHg 15%
    12:00 +38°C° 0 mm 3 mps 667 mmHg 14%
    13:00 +39°C° 0 mm 3 mps 667 mmHg 13%
    14:00 +39°C° 0 mm 3 mps 666 mmHg 13%
    15:00 +39°C° 0 mm 3 mps 666 mmHg 14%
    16:00 +39°C° 0 mm 3 mps 665 mmHg 14%
    17:00 +37°C° 0 mm 2 mps 665 mmHg 16%
    18:00 +36°C° 0 mm 2 mps 665 mmHg 18%
    19:00 +33°C° 0 mm 1 mps 665 mmHg 20%
    20:00 +32°C° 0 mm 1 mps 665 mmHg 21%
    21:00 +32°C° 0 mm 2 mps 666 mmHg 22%
    22:00 +31°C° 0 mm 2 mps 666 mmHg 23%
    23:00 +30°C° 0 mm 3 mps 666 mmHg 24%

    15 December, Sunday

    Time Temperature Precipitation Wind Pressure Humidity
    00:00 +29°C° 0 mm 3 mps 666 mmHg 25%
    01:00 +29°C° 0 mm 4 mps 666 mmHg 26%
    02:00 +28°C° 0 mm 3 mps 666 mmHg 26%
    03:00 +27°C° 0 mm 3 mps 666 mmHg 27%
    04:00 +27°C° 0 mm 2 mps 665 mmHg 27%
    05:00 +27°C° 0 mm 2 mps 666 mmHg 27%
    06:00 +27°C° 0 mm 2 mps 666 mmHg 27%
    07:00 +27°C° 0 mm 2 mps 666 mmHg 26%
    08:00 +29°C° 0 mm 1 mps 667 mmHg 24%
    09:00 +31°C° 0 mm 1 mps 667 mmHg 21%
    10:00 +34°C° 0 mm 1 mps 668 mmHg 19%
    11:00 +36°C° 0 mm 1 mps 667 mmHg 17%
    12:00 +39°C° 0 mm 1 mps 667 mmHg 16%
    13:00 +38°C° 0 mm 0 mps 666 mmHg 15%
    14:00 +40°C° 0 mm 1 mps 666 mmHg 15%
    15:00 +39°C° 0 mm 2 mps 665 mmHg 16%
    16:00 +38°C° 0 mm 2 mps 664 mmHg 17%
    17:00 +37°C° 0 mm 2 mps 664 mmHg 20%
    18:00 +35°C° 0 mm 3 mps 664 mmHg 24%
    19:00 +34°C° 0 mm 3 mps 664 mmHg 27%
    20:00 +32°C° 0 mm 4 mps 665 mmHg 32%
    21:00 +30°C° 0 mm 5 mps 666 mmHg 37%
    22:00 +29°C° 0 mm 6 mps 666 mmHg 42%
    23:00 +28°C° 0.1 mm 6 mps 666 mmHg 48%
    Show more